Find Starlink 35103

NORAD ID: 65633 Int'l Des: 2025-210 Owner: SPXS Country: US Constellation: starlink operational
LEOCIRCULAR

現在のビュー

3D地球を読み込み中...

Starlink 35103について

説明を読み込み中...

次回通過

Passes for default location (London). Set your location on the main map for personalized predictions.

高度履歴

Loading altitude history...

軌道要素

1 65633U 25210M 26149.78580799 .00030409 00000-0 90654-3 0 9991
2 65633 53.1609 289.2351 0001268 65.5544 294.5591 15.34432648 40161
Epoch: May 29, 2026 • Age: 20 hours

現在のステータス

高度 464.4 km
速度 7.63 km/s
衛星直下点 -4.38°S, 4.25°E
打ち上げ日 Sep 18, 2025
運用期間 0.6 years
タイプ internet

技術仕様

分類 Payload
質量 575.00 kg
乾燥質量 530.00 kg
総質量 575.00 kg
長さ 0.30 m
直径 4.10 m
スパン 29.00 m
形状 Box + pan
製造者 SPXS
バスタイプ Starlink V2MO
フェーズステータス In Orbit
所有者/国 SPXS/US

Most Searched